Weather History for Shaw AFB, SC

Change the Weather History Date:

Monday, June 17, 2013

  Actual Average Record
Temperature  
Mean Temperature 78 °F -  
Max Temperature 89 °F 84 °F 96 °F (2008)
Min Temperature 67 °F 65 °F 46 °F (1998)
Cooling Degree Days 13    
Growing Degree Days 28 (Base 50)    
Moisture  
Dew Point 67 °F    
Average Humidity 72    
Maximum Humidity 95    
Minimum Humidity 46    
Precipitation  
Precipitation 0.46 in - - ()
Sea Level Pressure  
Sea Level Pressure 30.00 in    
Wind  
Wind Speed 9 mph (SSW)    
Max Wind Speed 29 mph    
Max Gust Speed 37 mph    
Visibility 9 miles    
Events Fog , Rain , Thunderstorm    
Averages and records for this station are not official NWS values.
T = Trace of Precipitation, MM = Missing Value Source: NWS Daily Summary

Daily Weather History Graph

Daily Weather History Graph

Search for Another Location

Airport:

Trip Planner

Search our weather history database for the weather conditions in past years. The results will help you decide how hot, cold, wet, or windy it might be!

Date:

Astronomy

Jun. 17, 2013 Rise Set
Actual Time 6:10 AM EDT 8:35 PM EDT
Civil Twilight 5:41 AM EDT 9:04 PM EDT
Nautical Twilight 5:05 AM EDT 9:40 PM EDT
Astronomical Twilight 4:25 AM EDT 10:19 PM EDT
Moon 2:25 PM EDT (6/17) 1:30 AM EDT (6/17)
Length of Visible Light 15h 23m
Length of Day
14h 24m
First Quarter, 60% of the Moon is Illuminated
Jun 17
First Quarter
Jun 23
Full
Jun 30
Last Quarter
Jul 8
New
Jul 15
First Quarter

Hourly Weather History & Observations

Time (EDT) Temp. Heat Index Dew Point Humidity Pressure Visibility Wind Dir Wind Speed Gust Speed Precip Events Conditions
12:53 AM 71.6 °F - 60.8 °F 69% 30.07 in 9.0 mi SSW 8.1 mph - N/A   Clear
12:58 AM 72.1 °F - 61.3 °F 69% 30.07 in 9.0 mi SSW 8.1 mph - N/A   Clear
1:03 AM 71.6 °F - 60.8 °F 69% 30.07 in 10.0 mi South 8.1 mph - N/A   Clear
1:58 AM 71.1 °F - 61.3 °F 71% 30.07 in 10.0 mi South 5.8 mph - N/A   Scattered Clouds
2:58 AM 69.6 °F - 61.7 °F 76% 30.06 in 10.0 mi SSW 4.6 mph - N/A   Clear
3:58 AM 68.9 °F - 62.8 °F 81% 30.06 in 10.0 mi SW 3.5 mph - N/A   Clear
4:58 AM 68.4 °F - 63.5 °F 84% 30.07 in 10.0 mi South 3.5 mph - N/A   Clear
5:58 AM 67.5 °F - 63.7 °F 88% 30.05 in 10.0 mi SSW 2.3 mph - N/A   Clear
6:58 AM 68.7 °F - 64.4 °F 86% 30.06 in 10.0 mi South 3.5 mph - N/A   Partly Cloudy
7:58 AM 70.5 °F - 63.3 °F 78% 30.06 in 10.0 mi South 8.1 mph - N/A   Clear
8:58 AM 75.4 °F - 63.1 °F 66% 30.06 in 10.0 mi SW 8.1 mph - N/A   Scattered Clouds
9:58 AM 78.1 °F - 62.2 °F 58% 30.05 in 10.0 mi SSW 8.1 mph - N/A   Overcast
10:58 AM 81.0 °F 82.1 °F 62.4 °F 53% 30.04 in 10.0 mi SSW 10.4 mph - N/A   Scattered Clouds
11:58 AM 83.5 °F 84.9 °F 64.0 °F 52% 30.04 in 10.0 mi South 10.4 mph - N/A   Partly Cloudy
12:58 PM 85.3 °F 87.9 °F 66.7 °F 54% 30.02 in 10.0 mi SW 9.2 mph - N/A   Mostly Cloudy
1:58 PM 84.2 °F 87.3 °F 68.2 °F 58% 30.02 in 10.0 mi SSW 12.7 mph - N/A   Scattered Clouds
2:58 PM 86.5 °F 90.0 °F 68.4 °F 54% 29.99 in 10.0 mi SSE 9.2 mph - N/A   Scattered Clouds
3:46 PM 86.0 °F 89.4 °F 68.0 °F 55% 29.96 in 10.0 mi SW 9.2 mph - N/A   Light Drizzle
3:57 PM 87.8 °F 91.4 °F 68.0 °F 52% 29.96 in 10.0 mi SSW 8.1 mph - N/A   Partly Cloudy
3:58 PM 87.8 °F 91.4 °F 68.0 °F 52% 29.96 in 10.0 mi SW 8.1 mph - 0.00 in   Partly Cloudy
4:58 PM 88.7 °F 92.2 °F 67.6 °F 50% 29.95 in 10.0 mi SW 8.1 mph - 0.00 in   Scattered Clouds
5:58 PM 88.9 °F 91.4 °F 66.0 °F 47% 29.93 in 10.0 mi South 9.2 mph - N/A   Clear
5:59 PM 89.6 °F 92.2 °F 66.2 °F 46% 29.93 in 10.0 mi South 8.1 mph - N/A Thunderstorm Thunderstorm
6:04 PM 89.6 °F 92.2 °F 66.2 °F 46% 29.93 in 10.0 mi South 8.1 mph - N/A   Clear
6:05 PM 89.6 °F 92.2 °F 66.2 °F 46% 29.93 in 10.0 mi South 8.1 mph - N/A Thunderstorm Thunderstorm
6:06 PM 89.6 °F 92.2 °F 66.2 °F 46% 29.93 in 10.0 mi South 8.1 mph - N/A   Clear
6:23 PM 84.2 °F 88.4 °F 69.8 °F 62% 29.95 in 10.0 mi SSW 25.3 mph 31.1 mph N/A Thunderstorm Scattered Clouds
6:37 PM 78.8 °F - 68.0 °F 69% 29.97 in 10.0 mi SSW 23.0 mph 34.5 mph N/A Rain , Thunderstorm Light Thunderstorms and Rain
6:42 PM 77.0 °F - 71.6 °F 83% 29.98 in 1.5 mi SW 28.8 mph 36.8 mph N/A Rain , Thunderstorm Thunderstorms and Rain
6:44 PM 75.2 °F - 71.6 °F 89% 29.97 in 0.8 mi SW 25.3 mph 36.8 mph N/A Rain , Thunderstorm Heavy Thunderstorms and Rain
6:49 PM 73.4 °F - 69.8 °F 88% 29.98 in 0.5 mi SW 20.7 mph 36.8 mph N/A Fog , Rain , Thunderstorm Light Thunderstorms and Rain
6:54 PM 73.4 °F - 71.6 °F 94% 29.98 in 1.5 mi SSW 13.8 mph 29.9 mph N/A Rain , Thunderstorm Light Thunderstorms and Rain
6:56 PM 73.4 °F - 71.6 °F 94% 29.98 in 3.0 mi SW 12.7 mph - N/A Rain Light Rain
6:58 PM 73.4 °F - 71.6 °F 94% 29.98 in 5.0 mi SW 13.8 mph - 0.30 in Rain , Thunderstorm Light Rain
7:04 PM 73.4 °F - 69.8 °F 88% 29.98 in 10.0 mi WSW 17.3 mph - N/A Rain , Thunderstorm Light Rain
7:09 PM 73.4 °F - 69.8 °F 88% 29.98 in 7.0 mi West 15.0 mph - N/A Rain , Thunderstorm Heavy Rain
7:14 PM 73.4 °F - 68.0 °F 83% 29.98 in 3.0 mi WSW 11.5 mph - N/A Rain , Thunderstorm Light Rain
7:58 PM 73.0 °F - 69.3 °F 88% 29.98 in 7.0 mi WSW 5.8 mph - 0.15 in Rain Light Rain
8:28 PM 73.4 °F - 69.8 °F 88% 29.99 in 10.0 mi South 2.3 mph - N/A   Scattered Clouds
8:40 PM 73.4 °F - 69.8 °F 88% 30.00 in 10.0 mi SSW 2.3 mph - N/A   Scattered Clouds
8:58 PM 73.4 °F - 68.7 °F 85% 30.00 in 10.0 mi SSE 3.5 mph - 0.01 in   Mostly Cloudy
9:58 PM 73.9 °F - 70.0 °F 87% 30.00 in 10.0 mi East 4.6 mph - N/A   Mostly Cloudy
10:13 PM 73.4 °F - 69.8 °F 88% 30.00 in 10.0 mi ESE 3.5 mph - N/A   Overcast
10:58 PM 73.0 °F - 70.9 °F 93% 30.01 in 10.0 mi SE 4.6 mph - N/A   Scattered Clouds
11:58 PM 73.2 °F - 71.8 °F 95% 30.01 in 10.0 mi South 4.6 mph - N/A   Scattered Clouds